IRNSS-1C

Last updated on Wed Jul 09 2025 00:02:45 GMT+0000 (Coordinated Universal Time)

1 40269U 14061A 25188.79416353 -.00000150 00000+0 00000+0 0 9990 2 40269 5.6397 95.8621 0022224 9.2680 189.7434 1.00269351 39231
UTC large
Height (km)
Speed (km/s)
/
Latitude / Longitude
Inclination (degrees)
Orbital Period (minutes)
Azimuth
Elevation
Range (km)
Doppler Factor

Next 0 passes for location: London (51.5072 / 0.1276)

Sorry there are no passes over London.